Wind_Speed
15 16 14 11 14 16 15 15 15 13 11 12 11 10 12 10 10 10 10 7 6 8 5 6 7 11 10 10 10 11 10 8 9 7 4 4 6 6 6 6 7 6 7
17 17 19 15 14 17 16 17 18 16 14 13 14 12 12 13 12 11 11 6 6 8 10 7 8 12 11 10 12 10 5 6 5 6 8 9 7 11 13 12 11 9 9
17 16 19 20 17 17 17 17 19 20 20 18 19 16 15 14 15 13 12 9 9 9 9 6 7 7 9 9 9 10 8 7 6 7 8 11 7 8 15 13 14 14 12
19 21 23 22 20 20 21 20 19 19 21 21 20 19 19 19 18 16 15 13 11 10 11 8 8 7 7 8 10 10 10 9 10 9 12 13 10 13 15 19 12 12 21
22 21 22 24 23 24 27 26 23 20 20 22 22 21 21 21 21 18 16 16 15 14 14 12 11 11 10 10 10 11 11 12 12 13 13 14 14 15 15 14 11 13 18
24 23 23 25 28 27 27 31 29 22 20 20 20 18 18 19 19 19 19 19 18 18 17 15 14 13 13 12 12 12 12 14 14 14 14 14 15 17 16 14 14 13 11
25 24 27 29 30 31 37 34 31 27 24 21 19 19 19 18 17 17 17 16 18 19 18 16 15 16 15 15 15 15 14 14 14 14 15 16 17 16 16 17 17 16 13
27 25 27 31 34 34 36 28 26 37 31 27 23 22 21 20 19 18 19 18 17 14 15 16 16 16 16 17 17 17 16 16 15 16 16 17 17 18 20 21 20 16 16
27 30 30 32 34 33 32 31 35 30 31 31 31 29 25 23 22 23 23 21 19 16 15 16 17 17 17 17 17 18 16 17 17 18 20 20 21 20 17 19 17 16 16
27 28 27 29 33 33 32 30 29 34 36 29 33 30 31 27 25 27 25 23 19 15 16 18 20 20 19 18 20 19 19 17 19 21 21 21 20 20 21 22 20 17 17
27 29 28 27 29 29 30 30 28 30 36 37 38 37 32 37 28 29 29 23 23 22 24 24 25 26 27 20 19 19 18 22 28 28 23 22 20 20 16 14 12 11 9
22 26 28 28 28 25 25 24 23 25 27 28 33 31 38 43 41 32 31 25 25 27 24 24 27 25 20 22 23 25 24 25 20 17 13 13 10 5 5 3 5 6 8
13 19 24 25 27 28 26 25 25 26 28 23 26 33 27 38 34 32 28 25 25 25 27 27 28 26 23 24 26 20 11 7 5 5 1 4 4 9 12 12 10 8 9
12 13 15 17 21 25 25 28 27 24 24 28 19 19 21 27 34 27 27 26 28 25 22 23 22 22 17 15 11 8 7 8 9 9 10 10 10 10 9 10 10 11 12
6 4 5 8 13 11 14 14 17 21 19 21 22 15 21 21 20 21 23 24 22 20 18 15 13 10 9 9 7 10 10 10 10 11 12 11 10 11 10 9 8 9 9
5 8 11 12 9 7 5 9 9 16 18 18 19 22 26 24 21 19 22 21 15 16 15 13 10 10 10 10 10 10 10 9 9 8 7 7 8 7 7 7 7 7 8
5 3 6 12 14 13 14 14 12 14 20 24 20 18 19 17 18 19 13 14 14 13 12 12 12 11 10 10 10 8 8 7 6 5 6 7 7 6 6 6 7 8 8
9 7 5 5 8 8 10 12 14 14 14 15 14 15 13 14 14 13 12 12 12 12 11 10 10 9 9 9 7 7 7 6 5 6 6 6 6 7 8 9 10 10 10
8 5 4 4 4 7 8 9 10 10 12 12 11 11 12 12 13 13 13 12 11 10 10 10 10 10 9 7 7 6 5 5 5 6 6 6 7 7 8 10 10 9 10
5 5 6 4 5 6 7 9 9 9 10 9 9 10 11 12 12 12 11 11 11 11 10 10 9 9 8 7 6 6 6 5 6 7 8 9 8 8 9 10 10 9 8
5 6 7 7 7 6 7 8 8 9 10 10 11 11 11 10 9 10 9 9 8 9 8 6 5 5 5 6 7 7 8 8 8 8 8 9 9 7 6 9 11 11 10
7 8 9 8 7 8 8 6 6 7 7 8 8 7 7 6 5 5 3 3 4 6 7 7 8 9 9 9 8 9 9 8 8 7 7 6 7 8 9 11 11 11 11
9 8 6 4 4 6 6 7 8 7 8 9 9 9 8 7 5 4 4 6 6 5 2 2 5 8 9 10 9 8 6 5 6 7 7 8 9 10 12 12 13 13 14
9 8 8 5 5 6 6 7 8 9 9 9 10 9 8 7 7 7 9 6 4 2 3 1 2 3 7 7 8 7 6 5 5 7 9 11 12 12 12 13 14 13 14
7 9 11 8 7 9 7 9 10 10 12 11 10 9 6 4 4 6 6 2 3 3 2 4 4 6 4 3 4 9 13 11 11 13 13 15 16 18 15 19 14 15 16
10 11 13 14 13 12 11 11 13 13 14 13 12 10 9 8 7 7 6 5 6 10 14 13 11 14 15 12 8 11 10 9 16 20 20 18 17 20 23 22 18 17 16
Wind_Direction
246 237 240 247 253 245 247 248 237 236 237 226 232 224 214 221 220 219 220 225 240 230 245 262 244 242 256 254 261 265 267 273 276 273 302 282 288 280 292 283 275 269 261
271 232 234 234 250 253 245 246 243 237 232 226 226 215 217 223 228 218 222 220 233 225 235 249 261 259 246 241 252 273 288 275 284 269 266 272 290 328 305 270 260 255 258
255 262 258 245 243 247 247 242 245 240 233 227 226 226 229 230 235 228 224 221 233 233 248 264 277 259 249 248 245 263 264 265 253 249 261 262 279 300 337 325 255 252 250
261 255 258 242 246 239 242 243 242 242 238 230 229 230 230 229 234 233 228 230 230 240 246 252 258 251 240 244 243 256 265 267 266 270 265 268 272 301 309 328 274 260 237
255 255 252 247 250 243 240 243 242 237 238 235 221 223 226 233 238 240 240 238 237 243 252 250 259 247 255 255 254 260 267 273 270 274 276 273 280 298 306 318 305 315 246
245 248 248 245 247 249 244 238 237 229 224 229 223 220 226 230 235 242 246 246 243 246 246 251 259 261 258 264 264 264 264 264 269 272 272 266 274 288 292 306 309 301 282
250 245 247 251 253 253 252 232 227 227 217 214 219 218 219 224 226 232 240 244 246 244 249 250 258 264 264 268 267 266 267 268 270 273 273 274 273 273 281 293 300 292 285
262 258 254 253 255 252 257 256 243 245 226 215 221 223 223 226 225 232 239 243 245 244 242 249 256 268 272 272 269 268 268 267 267 272 276 274 270 274 284 293 282 284 275
259 256 252 253 255 253 256 257 252 232 231 227 222 228 230 230 231 236 240 245 244 249 250 255 262 269 274 273 270 269 265 268 269 274 277 272 273 275 281 289 280 275 262
261 258 256 253 253 254 255 253 252 245 244 226 233 227 236 235 236 237 239 252 233 249 261 262 264 268 271 279 273 266 266 271 281 286 283 277 272 269 281 288 274 274 266
259 256 256 254 255 253 253 257 258 252 248 249 249 247 257 235 238 240 229 237 243 258 264 262 264 263 267 267 259 254 258 274 280 279 273 275 270 280 273 256 256 259 264
263 258 255 252 248 248 249 252 249 249 245 243 250 255 247 230 233 236 246 241 251 263 258 261 268 264 263 261 255 265 270 277 276 276 272 270 225 220 234 233 250 251 247
269 263 256 249 246 244 244 245 243 241 244 230 250 258 251 229 262 231 236 247 253 258 262 271 264 256 253 259 260 254 241 212 226 222 254 233 224 228 250 255 263 278 260
302 282 253 244 241 244 243 245 246 241 235 238 252 229 225 229 229 235 243 248 258 261 255 243 222 218 214 200 185 197 236 240 257 242 245 249 248 249 271 262 265 267 255
20 7 301 252 242 235 235 238 238 231 242 230 216 231 221 221 225 241 250 246 242 229 232 215 189 170 179 182 192 229 228 230 232 238 247 256 255 262 272 272 272 270 270
358 53 78 92 118 125 157 224 215 215 222 214 206 217 225 229 243 231 197 190 185 187 179 176 182 181 197 212 215 225 227 235 239 242 246 253 259 268 274 279 276 275 283
265 71 77 95 89 102 119 116 109 134 148 149 152 149 142 150 158 159 161 162 161 171 184 194 199 202 211 224 223 218 217 216 222 233 247 254 256 257 266 275 280 285 289
228 222 220 73 115 100 104 108 112 112 126 127 133 135 136 142 152 158 162 169 180 194 199 198 200 199 200 200 195 195 206 212 219 235 247 261 272 286 288 290 294 298 299
210 198 170 150 166 160 152 136 137 142 141 147 154 162 171 178 180 178 179 180 177 179 179 181 178 178 186 193 205 211 223 227 236 245 254 263 274 285 288 283 281 283 289
173 188 185 178 164 156 149 148 151 157 155 156 156 157 156 156 157 157 160 169 172 173 180 183 181 190 199 211 220 232 238 246 252 262 268 270 270 272 278 283 292 305 307
174 186 182 179 165 150 166 163 154 156 152 154 158 158 154 158 160 165 165 163 164 177 186 190 209 236 244 252 254 250 251 251 250 252 261 271 277 290 300 303 301 301 300
207 190 179 177 171 157 170 175 168 169 164 159 158 160 162 163 179 202 191 211 201 215 224 236 241 246 254 255 251 247 247 249 253 254 255 271 291 295 300 301 300 296 291
194 185 185 184 191 173 188 193 182 183 179 183 182 184 189 194 206 231 250 240 226 234 248 240 246 250 249 245 246 245 241 244 256 260 253 257 274 290 296 295 292 291 292
220 212 197 205 226 234 213 216 203 183 200 210 209 209 206 204 211 222 208 171 145 156 90 56 352 338 269 265 245 240 246 259 251 265 277 284 288 291 311 305 296 289 285
242 239 241 216 238 247 243 243 241 225 205 209 212 211 224 228 213 209 229 202 51 358 305 289 327 343 340 297 278 287 277 271 285 302 298 290 296 310 303 309 296 286 280
249 245 248 247 235 232 243 250 255 256 255 238 225 221 232 250 260 246 254 283 342 342 335 306 306 305 320 300 302 326 298 273 287 283 299 307 297 288 299 296 290 296 283
Height
3175 3177 3179 3181 3183 3184 3185 3187 3188 3189 3190 3192 3193 3193 3195 3196 3197 3198 3198 3199 3199 3200 3200 3200 3200 3200 3200 3200 3201 3201 3200 3201 3200 3201 3200 3199 3199 3198 3198 3197 3196 3195 3195
3171 3172 3176 3177 3178 3180 3182 3184 3184 3185 3186 3189 3190 3191 3193 3192 3193 3195 3196 3196 3196 3197 3198 3198 3197 3198 3198 3198 3198 3198 3198 3198 3199 3198 3198 3198 3198 3197 3194 3194 3193 3193 3193
3167 3169 3172 3173 3173 3174 3177 3179 3180 3181 3182 3184 3186 3189 3190 3191 3192 3193 3193 3194 3194 3194 3194 3195 3195 3195 3195 3195 3195 3195 3195 3195 3196 3196 3196 3195 3196 3194 3192 3187 3186 3187 3190
3161 3163 3164 3166 3167 3168 3171 3173 3174 3175 3177 3178 3181 3184 3187 3188 3189 3189 3190 3191 3191 3191 3190 3191 3192 3193 3193 3192 3192 3192 3192 3192 3193 3193 3193 3192 3193 3192 3190 3186 3183 3183 3184
3154 3155 3157 3158 3160 3160 3163 3167 3168 3169 3170 3173 3175 3177 3181 3183 3184 3185 3186 3187 3187 3187 3187 3188 3189 3189 3189 3189 3189 3190 3189 3190 3190 3190 3190 3189 3189 3188 3188 3187 3185 3183 3178
3146 3149 3150 3150 3152 3155 3157 3159 3161 3162 3163 3167 3169 3171 3174 3177 3179 3180 3181 3182 3182 3182 3183 3184 3184 3184 3185 3186 3186 3186 3186 3186 3186 3186 3186 3186 3185 3185 3185 3185 3184 3182 3181
3141 3141 3141 3143 3144 3147 3143 3122 3151 3157 3157 3159 3163 3165 3168 3171 3173 3175 3176 3177 3177 3178 3178 3179 3180 3180 3181 3182 3183 3183 3182 3182 3182 3182 3182 3182 3182 3182 3181 3181 3180 3179 3178
3134 3134 3134 3134 3136 3140 3138 3126 3138 3147 3152 3151 3156 3159 3162 3165 3168 3169 3170 3171 3172 3174 3174 3175 3176 3176 3178 3178 3178 3178 3178 3178 3178 3178 3177 3178 3178 3178 3177 3176 3174 3174 3173
3128 3128 3129 3129 3129 3133 3134 3135 3137 3140 3145 3146 3147 3151 3155 3159 3162 3163 3164 3165 3167 3169 3170 3171 3171 3171 3173 3173 3173 3173 3172 3173 3173 3173 3173 3172 3172 3171 3171 3170 3169 3169 3168
3120 3120 3120 3121 3121 3122 3125 3127 3128 3129 3132 3117 3138 3142 3148 3150 3153 3155 3157 3160 3161 3163 3165 3166 3166 3166 3167 3167 3168 3168 3168 3169 3169 3168 3167 3167 3166 3165 3165 3164 3164 3163 3163
3111 3110 3111 3113 3112 3113 3115 3116 3117 3118 3122 3125 3128 3133 3137 3144 3144 3148 3148 3153 3155 3156 3158 3159 3159 3160 3161 3160 3161 3162 3162 3162 3162 3161 3160 3161 3159 3159 3158 3158 3158 3157 3157
3102 3102 3102 3104 3105 3107 3109 3110 3111 3113 3115 3117 3120 3123 3126 3130 3133 3138 3141 3144 3148 3149 3150 3151 3151 3152 3152 3153 3154 3155 3155 3155 3155 3155 3154 3155 3155 3155 3156 3156 3157 3156 3156
3095 3094 3094 3095 3097 3100 3102 3104 3105 3107 3109 3110 3113 3114 3115 3118 3126 3128 3134 3137 3140 3142 3144 3143 3143 3144 3145 3146 3147 3148 3149 3150 3151 3152 3153 3153 3154 3155 3155 3155 3154 3153 3153
3089 3088 3087 3088 3090 3092 3094 3096 3098 3100 3102 3105 3107 3107 3108 3109 3116 3122 3128 3130 3133 3135 3137 3137 3135 3135 3136 3138 3141 3143 3146 3148 3149 3150 3150 3150 3151 3151 3151 3151 3151 3151 3151
3089 3085 3084 3084 3086 3087 3089 3090 3091 3093 3097 3098 3102 3103 3105 3108 3112 3117 3121 3123 3126 3129 3130 3131 3132 3134 3135 3137 3139 3142 3143 3145 3146 3147 3147 3147 3147 3148 3148 3148 3149 3148 3148
3093 3089 3086 3086 3085 3085 3085 3087 3088 3090 3092 3094 3097 3099 3102 3106 3110 3113 3114 3117 3120 3124 3127 3129 3131 3133 3136 3137 3138 3141 3141 3142 3143 3144 3144 3144 3145 3145 3145 3145 3146 3146 3146
3094 3093 3092 3090 3089 3089 3088 3090 3091 3093 3092 3095 3098 3098 3101 3105 3108 3111 3115 3118 3120 3124 3127 3128 3131 3133 3135 3136 3137 3139 3140 3140 3141 3142 3142 3142 3143 3143 3143 3143 3143 3143 3143
3094 3094 3094 3092 3093 3094 3094 3094 3095 3096 3097 3099 3100 3103 3106 3108 3111 3114 3118 3121 3123 3125 3127 3128 3130 3131 3133 3134 3136 3137 3138 3139 3139 3140 3140 3141 3140 3139 3139 3139 3139 3140 3141
3094 3094 3095 3095 3096 3096 3098 3098 3099 3101 3102 3104 3105 3108 3109 3112 3114 3116 3118 3121 3123 3124 3125 3127 3129 3130 3131 3132 3135 3135 3136 3137 3137 3138 3138 3137 3138 3138 3138 3138 3137 3138 3137
3095 3095 3096 3096 3098 3098 3099 3100 3101 3102 3104 3106 3108 3110 3112 3114 3115 3117 3119 3122 3123 3124 3125 3127 3129 3131 3132 3133 3133 3133 3133 3133 3134 3135 3134 3135 3135 3135 3135 3134 3134 3134 3135
3094 3096 3096 3097 3099 3100 3101 3102 3103 3104 3105 3107 3109 3110 3112 3114 3117 3118 3121 3122 3123 3124 3125 3125 3126 3128 3129 3130 3130 3130 3131 3132 3132 3132 3132 3132 3132 3133 3132 3131 3131 3131 3131
3095 3097 3098 3098 3099 3100 3101 3102 3104 3105 3106 3108 3109 3111 3113 3115 3116 3118 3119 3120 3121 3121 3122 3123 3124 3125 3126 3127 3128 3128 3129 3129 3129 3129 3129 3129 3128 3128 3128 3128 3129 3129 3128
3096 3096 3098 3099 3100 3102 3103 3104 3105 3106 3107 3109 3111 3113 3114 3115 3116 3117 3118 3119 3120 3120 3120 3120 3121 3121 3123 3124 3125 3126 3126 3126 3126 3126 3126 3126 3126 3125 3125 3125 3124 3123 3122
3095 3096 3097 3099 3100 3102 3104 3105 3106 3107 3108 3109 3111 3112 3113 3115 3116 3117 3118 3118 3118 3118 3119 3120 3120 3119 3120 3121 3122 3123 3123 3123 3123 3123 3121 3122 3122 3122 3122 3121 3121 3120 3120
3095 3095 3097 3097 3100 3101 3102 3104 3106 3107 3108 3109 3109 3110 3111 3112 3114 3115 3116 3116 3116 3117 3118 3119 3119 3120 3120 3119 3119 3119 3119 3119 3120 3120 3119 3118 3118 3117 3117 3116 3116 3115 3115
3093 3094 3095 3096 3098 3099 3101 3102 3103 3104 3106 3107 3108 3109 3110 3111 3112 3113 3114 3114 3114 3114 3115 3116 3116 3116 3117 3116 3115 3115 3115 3116 3116 3114 3113 3113 3113 3113 3112 3111 3110 3109 3108